[[{"header":{"parameterUnit":"m.s-1","parameterCategory":1,"la1":30.2991,"la2":30.254,"lo1":-89.0895,"lo2":-89.0444,"dy":0.0017,"dx":0.0017,"nx":28,"ny":28,"refTime":"2024-07-04T09:00:00:Z","depth":0,"parameterNumber":2,"parameterNumberName":"U-component_of_WINDS"},"data":[0,0,0,0,0,0,0,0,0,0,0,0,0,0,0,0,0,0,0,0,0,0,0,0,0,0,0,0,0,0,0,0,0,0,0,0,0,0,0,0,0,0,0,0,0,0,0,0,0,0,0,0,0,0,0,0,0,0,1.6904,1.6904,0,1.6914,1.6914,1.6914,1.6863,1.6862,1.686,1.6859,1.687,1.6872,1.6874,0,0,0,0,0,0,0,0,0,0,0,0,0,1.6839,1.684,1.6904,1.6904,1.6904,1.6914,1.6914,1.6914,1.6864,1.6862,1.686,1.6858,1.687,1.6872,1.6874,0,0,0,0,0,0,0,0,0,0,0,0,0,1.686,1.6841,1.6904,1.688,1.6878,1.6914,1.6914,1.6914,1.6864,1.6862,1.6859,1.6857,1.6869,1.6872,1.6874,1.6934,0,0,1.6882,1.6883,0,0,0,0,0,0,0,0,1.6859,1.6862,1.6883,1.6881,1.6879,1.6885,1.6896,1.6921,1.6864,1.6869,1.6859,1.6856,1.6877,1.6879,1.6886,1.6935,1.6935,1.6882,1.6884,1.6885,1.6886,0,0,0,0,0,0,0,1.6857,1.6862,1.6908,1.6883,1.6881,1.6868,1.6869,1.69,1.6886,1.6869,1.6865,1.6867,1.6876,1.6884,1.6886,1.6936,1.6882,1.6884,1.6886,1.6887,1.7031,1.7034,0,0,0,0,0,0,1.6859,1.6861,1.6907,1.6908,1.6863,1.6871,1.6872,1.6885,1.6885,1.6883,1.6869,1.6864,1.688,1.6883,1.6886,1.6954,1.6885,1.6887,1.6889,1.7029,1.7032,1.7034,0,0,0,0,0,0,1.6858,1.6864,1.6907,1.6883,1.6888,1.6875,1.689,1.6887,1.6894,1.6885,1.6882,1.6879,1.6879,1.6882,1.6922,1.6953,1.6888,1.6891,1.7026,1.703,1.7033,1.7091,0,0,0,0,0,0,1.6856,1.6864,1.6887,1.6884,1.6889,1.6943,1.6892,1.6889,1.6899,1.6893,1.6894,1.6892,1.6877,1.6918,1.6924,1.6956,1.6893,1.7023,1.7028,1.7032,1.7087,1.7096,1.7105,0,0,0,0,0,1.6854,1.6904,1.6888,1.6894,1.6918,1.6945,1.6948,1.6929,1.6902,1.6924,1.6918,1.6892,1.695,1.6923,1.6929,1.6962,1.7021,1.7027,1.7032,1.7082,1.7094,1.7105,0,0,0,0,0,0,1.6911,1.6903,1.6886,1.6936,1.6941,1.6937,1.6964,1.6943,1.6957,1.6951,1.6928,1.6928,1.6971,1.6971,1.6941,1.7019,1.6981,1.6987,1.7017,1.7028,1.7037,1.7035,1.6895,0,0,0,0,0,1.6929,1.6952,1.6944,1.6989,1.6993,1.6978,1.699,1.6974,1.6979,1.6982,1.6978,1.6984,1.7003,1.7016,1.7033,1.7087,1.7085,1.7112,1.7121,1.7129,1.7134,1.716,1.7171,1.7052,1.7051,1.7051,0,0,1.6967,1.6966,1.6982,1.7,1.7003,1.7026,1.6981,1.7008,1.7025,1.6986,1.7022,1.702,1.7025,1.7071,1.7091,1.7072,1.7167,1.7136,1.7142,1.7143,1.7166,1.7178,1.7188,1.7055,1.7054,1.7054,0,0,1.7048,1.705,1.7086,1.7089,1.7093,1.7083,1.7092,1.709,1.7086,1.7123,1.7093,1.7113,1.7147,1.715,1.7157,1.7237,1.7213,1.7244,1.7291,1.7316,1.7325,1.7333,1.7359,1.7369,1.7249,1.725,1.725,0,1.7095,1.7129,1.7108,1.7136,1.7144,1.7109,1.7145,1.7149,1.7159,1.7165,1.7144,1.7183,1.7185,1.7229,1.7249,1.7256,1.7264,1.7242,1.7325,1.7333,1.7341,1.7365,1.7375,1.7253,1.7253,1.7252,1.7252,0,1.7184,1.7209,1.7237,1.7246,1.7257,1.729,1.7273,1.7287,1.7271,1.7263,1.7298,1.7299,1.7314,1.7324,1.7309,1.7366,1.7354,1.733,1.729,1.7356,1.7378,1.7388,1.7258,1.7257,1.7256,1.7255,0,0,1.7301,1.7296,1.7307,1.7309,1.731,1.7328,1.7358,1.7372,1.7383,1.7392,1.7414,1.7443,1.742,1.7427,1.7413,1.7435,1.7495,1.7407,1.7407,1.7421,1.7555,1.7571,1.7582,1.748,1.7482,1.7483,1.7553,0,1.7377,1.7427,1.7408,1.7459,1.748,1.7446,1.7472,1.7475,1.7468,1.7484,1.7477,1.7496,1.7466,1.747,1.749,1.7483,1.7521,1.7478,1.7499,1.7501,1.7497,1.7594,1.7612,1.7678,1.7562,1.7564,1.7565,0,1.7473,1.7483,1.7535,1.753,1.7538,1.7562,1.7571,1.7588,1.759,1.7584,1.7591,1.7571,1.7599,1.7561,1.7599,1.757,1.7578,1.7576,1.7578,1.7577,1.7535,1.7594,1.7699,1.7708,1.7579,1.7578,1.7577,0,1.7549,1.7576,1.7609,1.7613,1.7609,1.7625,1.7625,1.7625,1.7634,1.7643,1.7648,1.7661,1.7667,1.7678,1.7661,1.7636,1.77,1.7662,1.7693,1.7694,1.7706,1.7705,1.7812,1.7716,1.7716,1.7716,1.7716,0,1.7635,1.7667,1.7643,1.7664,1.7699,1.7677,1.7712,1.7708,1.7708,1.7727,1.77,1.7718,1.7696,1.7712,1.77,1.7731,1.7735,1.7729,1.7725,1.773,1.773,1.7733,1.7727,1.7719,1.7718,1.7717,1.7717,0,1.7724,1.771,1.7744,1.7736,1.7735,1.7761,1.7755,1.7773,1.7764,1.7788,1.7792,1.7778,1.7795,1.778,1.7798,1.7789,1.7829,1.782,1.7828,1.7824,1.7856,1.7852,1.7966,1.7979,1.7877,1.7878,1.7879,0,1.7779,1.7802,1.7797,1.7807,1.7807,1.7825,1.7832,1.7812,1.7822,1.7825,1.7843,1.7857,1.7868,1.7897,1.7888,1.79,1.7889,1.7928,1.7891,1.7894,1.7886,1.7884,1.7885,1.7935,1.7936,1.7937,1.7938,0,1.7875,1.7866,1.7879,1.7888,1.7898,1.7905,1.791,1.792,1.7899,1.7911,1.7927,1.7935,1.7952,1.7966,1.7975,1.7974,1.7952,1.795,1.7958,1.7962,1.7964,1.796,1.7846,1.7947,1.7946,1.7946,1.7945,1.7945,1.7947,1.7965,1.7963,1.7978,1.7979,1.7983,1.7999,1.7992,1.8005,1.8015,1.8003,1.8023,1.8023,1.8033,1.8034,1.8049,1.8032,1.8044,1.8046,1.8049,1.8052,1.7964,1.8051,1.8051,1.805,1.805,1.805,0,1.804,1.8036,1.805,1.8056,1.8067,1.8045,1.8049,1.8059,1.8076,1.8078,1.8088,1.8106,1.812,1.8112,1.8123,1.8136,1.8126,1.8139,1.8137,1.8136,1.8068,1.8059,1.8147,1.8147,1.8147,1.8147,1.8147,1.8147,1.8089,1.8118,1.8109,1.8137,1.8134,1.8152,1.8156,1.8159,1.816,1.8181,1.8191,1.8186,1.8183,1.8194,1.8205,1.8202,1.8206,1.8222,1.8216,1.8151,1.8142,1.8132,1.8124,1.8224,1.8224,1.8283,1.8284,1.8284]},{"header":{"parameterUnit":"m.s-1","parameterCategory":1,"la1":30.2991,"la2":30.254,"lo1":-89.0895,"lo2":-89.0444,"dy":0.0017,"dx":0.0017,"nx":28,"ny":28,"refTime":"2024-07-04T09:00:00:Z","depth":0,"parameterNumber":3,"parameterNumberName":"V-component_of_WINDS"},"data":[0,0,0,0,0,0,0,0,0,0,0,0,0,0,0,0,0,0,0,0,0,0,0,0,0,0,0,0,0,0,0,0,0,0,0,0,0,0,0,0,0,0,0,0,0,0,0,0,0,0,0,0,0,0,0,0,0,0,2.7396,2.7398,0,2.7557,2.7559,2.7561,2.7586,2.7585,2.7584,2.7582,2.7749,2.7755,2.776,0,0,0,0,0,0,0,0,0,0,0,0,0,2.711,2.7115,2.7396,2.7398,2.74,2.7557,2.7559,2.7561,2.7587,2.7585,2.7583,2.7582,2.7747,2.7754,2.7761,0,0,0,0,0,0,0,0,0,0,0,0,0,2.7249,2.7117,2.7395,2.7431,2.7436,2.7557,2.7559,2.7562,2.7587,2.7585,2.7583,2.7581,2.7745,2.7753,2.7762,2.7858,0,0,2.7788,2.7792,0,0,0,0,0,0,0,0,2.7241,2.726,2.7424,2.7429,2.7435,2.755,2.752,2.7661,2.7588,2.753,2.7582,2.758,2.7684,2.7698,2.7733,2.7866,2.7873,2.7789,2.7794,2.7798,2.78,0,0,0,0,0,0,0,2.7231,2.7253,2.746,2.7426,2.7433,2.744,2.7457,2.7547,2.7617,2.7535,2.7537,2.7556,2.7687,2.7725,2.7737,2.7876,2.7789,2.7796,2.7802,2.7805,2.8094,2.8096,0,0,0,0,0,0,2.7215,2.7245,2.7455,2.7465,2.7331,2.7446,2.7466,2.7515,2.7616,2.763,2.7557,2.7556,2.7711,2.7727,2.7743,2.7861,2.7798,2.7806,2.7811,2.8091,2.8094,2.8097,0,0,0,0,0,0,2.7209,2.7234,2.7448,2.7355,2.7383,2.7454,2.7508,2.7519,2.7557,2.7633,2.7646,2.7583,2.771,2.7731,2.7829,2.7868,2.781,2.7818,2.8089,2.8092,2.8096,2.8099,0,0,0,0,0,0,2.7201,2.7231,2.7269,2.7356,2.7388,2.7531,2.7511,2.7524,2.7571,2.7572,2.7661,2.7673,2.771,2.7816,2.7837,2.7878,2.7825,2.8085,2.809,2.8095,2.8096,2.8103,2.8108,0,0,0,0,0,2.719,2.7264,2.727,2.7296,2.7436,2.7533,2.7552,2.7592,2.7575,2.7613,2.7661,2.767,2.786,2.7826,2.785,2.7894,2.8083,2.8089,2.8094,2.8093,2.8101,2.8108,0,0,0,0,0,0,2.718,2.7276,2.7284,2.7388,2.7452,2.7537,2.7587,2.7599,2.767,2.7667,2.7714,2.7734,2.7829,2.7872,2.7832,2.7992,2.797,2.7981,2.7961,2.7969,2.7975,2.7963,2.7832,0,0,0,0,0,2.719,2.7261,2.7341,2.7425,2.7456,2.7516,2.756,2.7585,2.7653,2.7681,2.7737,2.7804,2.7878,2.7926,2.7999,2.8102,2.8121,2.8145,2.8151,2.8155,2.8164,2.8221,2.8232,2.8115,2.8115,2.8115,0,0,2.7211,2.7272,2.7314,2.7424,2.7477,2.7549,2.7539,2.7616,2.767,2.7693,2.7788,2.7832,2.7909,2.801,2.8057,2.8048,2.82,2.8163,2.8166,2.8172,2.8227,2.8238,2.8248,2.8119,2.8119,2.8118,0,0,2.7287,2.734,2.7415,2.7468,2.7547,2.7586,2.7604,2.7687,2.7716,2.7813,2.7831,2.7896,2.8023,2.8077,2.8121,2.8215,2.8225,2.8237,2.8269,2.8324,2.8333,2.8341,2.8374,2.8385,2.8246,2.8246,2.8246,0,2.7303,2.7412,2.7452,2.7528,2.7576,2.7599,2.7675,2.7724,2.7824,2.7856,2.7844,2.8003,2.8057,2.817,2.8193,2.8228,2.8249,2.8227,2.8328,2.8337,2.8346,2.8377,2.8389,2.8247,2.8247,2.8246,2.8246,0,2.7428,2.7503,2.7554,2.7648,2.7701,2.7777,2.7829,2.7878,2.7898,2.7938,2.8035,2.81,2.8186,2.8214,2.8235,2.833,2.8322,2.8319,2.8298,2.8357,2.8387,2.84,2.8248,2.8248,2.8247,2.8247,0,0,2.7502,2.7616,2.7634,2.7676,2.7765,2.7824,2.79,2.7983,2.8024,2.8091,2.8156,2.8263,2.826,2.831,2.8337,2.8385,2.8453,2.8376,2.8378,2.8387,2.856,2.8561,2.8575,2.8461,2.8463,2.8465,2.8553,0,2.7587,2.7723,2.7761,2.7876,2.7946,2.7968,2.8034,2.8096,2.8135,2.8199,2.8243,2.8317,2.8308,2.8338,2.8387,2.8435,2.8488,2.8429,2.8521,2.8524,2.85,2.8591,2.8593,2.8673,2.8566,2.8568,2.8569,0,2.7705,2.7773,2.7895,2.7973,2.8003,2.8062,2.814,2.8202,2.8272,2.8297,2.8351,2.8374,2.8454,2.8428,2.8538,2.8497,2.8537,2.8566,2.857,2.858,2.855,2.8602,2.87,2.8711,2.8588,2.8587,2.8586,0,2.7745,2.7868,2.7956,2.7992,2.8085,2.8126,2.8167,2.8234,2.8281,2.835,2.838,2.8458,2.85,2.8559,2.8601,2.8579,2.8708,2.8686,2.873,2.8729,2.8756,2.8754,2.8861,2.8783,2.8783,2.8783,2.8782,0,2.7836,2.7909,2.7975,2.803,2.8112,2.8155,2.8235,2.8277,2.8337,2.8399,2.8424,2.8482,2.8535,2.86,2.8634,2.8719,2.8738,2.876,2.8768,2.8758,2.8755,2.8785,2.878,2.8786,2.8785,2.8784,2.8784,0,2.7895,2.7943,2.804,2.812,2.8142,2.8199,2.8267,2.8321,2.836,2.8439,2.846,2.8522,2.86,2.8648,2.8747,2.8769,2.8863,2.887,2.8839,2.8843,2.8884,2.8879,2.9014,2.9033,2.8942,2.8943,2.8944,0,2.795,2.8006,2.8092,2.8135,2.8176,2.8246,2.8293,2.8337,2.8386,2.8468,2.8511,2.8591,2.8656,2.878,2.8833,2.8909,2.8917,2.8959,2.8929,2.8916,2.8917,2.8912,2.8918,2.8963,2.8964,2.8965,2.8965,0,2.8041,2.8061,2.8128,2.8203,2.8259,2.8321,2.8382,2.8416,2.847,2.8523,2.8603,2.8654,2.8754,2.8832,2.8912,2.8954,2.8969,2.8974,2.8988,2.8978,2.8958,2.8968,2.8852,2.8971,2.8971,2.897,2.897,2.897,2.8099,2.815,2.8218,2.8291,2.8342,2.8398,2.8452,2.8497,2.8564,2.8648,2.867,2.8753,2.882,2.8929,2.8973,2.9038,2.9032,2.9053,2.9058,2.9062,2.9062,2.8948,2.9053,2.9053,2.9053,2.9053,2.9052,0,2.8191,2.8235,2.8302,2.8387,2.8444,2.8452,2.852,2.8568,2.864,2.8701,2.8765,2.8855,2.8931,2.899,2.9067,2.9108,2.9117,2.9127,2.9124,2.9133,2.9064,2.9043,2.9119,2.9119,2.9119,2.9119,2.9119,2.9119,2.8245,2.8331,2.8359,2.847,2.8514,2.8595,2.8632,2.8684,2.8733,2.8833,2.8895,2.8933,2.8993,2.9075,2.9144,2.916,2.9187,2.9195,2.9212,2.9146,2.9139,2.9132,2.9113,2.9201,2.9201,2.9276,2.9277,2.9277]}]]